Location: Amherst
(42.3800°N, 72.5240°W)
Time: 11:29:56
(UTC-04:00)

ISS - Pass Details

Date: 21 May 2021
Orbit: 417 x 422 km, 51.6° (Epoch: 14 June)

Event Time Altitude Azimuth Distance (km) Brightness Sun altitude
Rises 20:43:11 0° 269° (W) 2,358 1.1 -5.8°
Reaches altitude 10° 20:45:31 10° 283° (WNW) 1,497 0.4 -6.2°
Maximum altitude 20:48:21 25° 341° (NNW) 890 -1.3 -6.6°
Drops below altitude 10° 20:51:13 10° 40° (NE) 1,503 -1.0 -7.1°
Sets 20:53:34 0° 54° (NE) 2,370 -0.1 -7.4°
